CZ-6A DEB, 64638

Orbit data source: Space-Track

CZ-6A DEB, 64638 is space debris in LEO originally from a launch on Tue, 06 Aug 2024 UTC launched from the Taiyaun Space Center, China (TSC). Debris objects in space refer to the collection of defunct objects orbiting the Earth. Examples of debris include non-operational satellites, rocket bodies, and fragments generated from explosions, collisions, or faulty payload assembly.

Loading next visibility...
Identifier
64638, 2024-140AEC
Orbit
LEO
Country
Flag of CNCN / PRC
Related business
Manufacturer
SAST
Mission
Spacecraft
Bus & Motor
Unknown
Mass
Unknown
Launch date (UTC)
2024-08-06 (1 year ago)
Launch vehicle
Unknown
Launch site
Taiyaun Space Center, China (TSC)
Object type
Payload
Rocket body
Debris
Shape & HBR
Unknown shape, 1.1 m
Radar Cross Section
Small (<0.1 m²)

Expand to show TLE details & history
Last TLE update: 1 day ago

TLE from 1 day ago
0 CZ-6A DEB
1 64638U 24140AEC 25349.81887202  .00005835  00000-0  16742-2 0  9990
2 64638  88.8580 285.3969 0045458 255.7875 103.8277 14.44226389 65432
Epoch: 2025-12-15T19:39Z
TLE epoch observation values (Epoch: 2025-12-15T19:39:10.542Z)
Latitude
0.00001°
Longitude
-94.109°
Altitude
755.534 km
Speed
7.473 km/s
True Right ascension
19h 01m 35s
True Declination
0° 00' 00"
Sunlit
Object was in daylight at epoch
Visualization orbit readout
Latitude
Unknown
Longitude
Unknown
Altitude
Unknown
Speed
Unknown
Apparent Right ascension
Unknown
Apparent Declination
Unknown
Sunlit
N/A
Visualization observer readout
Local Sidereal Time
20:57:44
Azimuth
Unknown
Elevation
Unknown
Doppler factor
Unknown
Orbital elements
Apogee altitude
773.85 km
Perigee altitude
709.121 km
Semi-major axis
7,119.623 km
Eccentricity
0.00455
Inclination
88.858°
RAAN
285.3969°
Arg. of periapsis
255.7875°
True anomaly
104.33282°
Mean anomaly
103.8277°
Eccentric anomaly
104.08033°
Mean motion
3.61291 °/min
Orbital period
99.64 mins
BSTAR
0.0016742
Loading maneuver chart data...
Computing Atmospheric mass density...
Loading historical data...
Loading historical data...
Loading historical data...
Loading historical data...
Loading historical data...
Loading historical data...
Loading historical data...

Documentation

Showing up to 5 results
|